GW3137 Weather Reports


time (UTC)temp
F
wind
direction
speed
knots
gust
knots
rain 1hr
in
rain 24hr
in
rain mn
in
humidity
%
barometer
mb
20260903210704 65 230 1.7 11.3 0.00 0.24 0.07 68 1009.7
20260903203205 67 287 3.5 8.7 0.00 0.25 0.07 62 1009.5
20260903200704 64 279 1.7 6.1 0.00 0.25 0.07 66 1009.5
20260903200204 64 292 2.6 8.7 0.00 0.25 0.07 67 1009.5
20260903193704 64 246 1.7 6.1 0.00 0.28 0.07 68 1009.5
20260903193204 64 185 2.6 10.4 0.00 0.28 0.07 67 1009.5
20260903190704 65 180 1.7 4.3 0.00 0.28 0.07 68 1009.4
20260903190204 64 160 1.7 7.8 0.00 0.28 0.07 69 1009.5
20260903183703 63 244 1.7 4.3 0.00 0.28 0.07 70 1009.5
20260903183204 62 188 1.7 6.1 0.00 0.28 0.07 71 1009.5
20260903180703 61 159 2.6 4.3 0.00 0.28 0.07 73 1009.5
20260903180204 61 163 3.5 7.8 0.00 0.28 0.07 73 1009.4
20260903173704 61 156 2.6 6.1 0.00 0.28 0.07 75 1009.3
20260903170704 61 119 0.9 2.6 0.00 0.28 0.07 81 1009.1
20260903170204 60 61 0.9 6.1 0.00 0.28 0.07 83 1009.1
20260903163704 59 136 2.6 5.2 0.00 0.28 0.07 83 1009.1
20260903163204 59 78 0.9 2.6 0.00 0.28 0.07 83 1009.1
20260903160204 58 163 0.9 6.1 0.00 0.28 0.07 85 1009.2
20260903153703 56 123 1.7 2.6 0.00 0.28 0.07 88 1009.0
20260903153204 56 71 1.7 7.8 0.00 0.28 0.07 88 1008.9
20260903150704 55 104 2.6 6.1 0.00 0.28 0.07 89 1008.9
20260903143704 55 90 2.6 6.1 0.00 0.28 0.07 90 1008.7
20260903143204 55 96 2.6 7.0 0.01 0.28 0.07 90 1008.7
20260903140704 55 103 1.7 7.0 0.02 0.28 0.07 91 1008.7
20260903133703 54 96 1.7 2.6 0.05 0.28 0.07 91 1008.6
20260903133204 54 86 1.7 2.6 0.04 0.27 0.06 91 1008.6
20260903130704 55 129 1.7 2.6 0.05 0.26 0.05 90 1008.5
20260903123704 55 254 0.9 1.7 0.02 0.23 0.02 90 1008.5
20260903123204 55 134 0.0 4.3 0.02 0.23 0.02 89 1008.4
20260903120703 55 220 0.9 2.6 0.00 0.21 0.00 85 1008.2
20260903120204 56 100 0.0 7.0 0.00 0.21 0.00 85 1008.0
20260903113204 56 97 1.7 6.1 0.00 0.21 0.00 86 1007.8
20260903110704 55 77 2.6 6.1 0.00 0.21 0.00 86 1007.8
20260903110204 55 89 1.7 6.1 0.00 0.21 0.00 86 1007.7
20260903103203 55 86 2.6 5.2 0.00 0.21 0.00 87 1007.6
20260903100704 55 85 1.7 2.6 0.00 0.21 0.00 88 1007.7
20260903100204 55 62 1.7 2.6 0.00 0.21 0.00 88 1007.8
20260903093704 56 72 1.7 2.6 0.00 0.21 0.00 86 1007.7
20260903093204 56 108 0.0 0.9 0.00 0.21 0.00 85 1007.8
20260903090704 56 108 0.9 1.7 0.00 0.21 0.00 84 1007.7
20260903090204 56 108 0.9 6.1 0.00 0.21 0.00 84 1007.6
20260903083704 56 124 1.7 2.6 0.00 0.21 0.00 84 1007.5
20260903080704 56 96 1.7 2.6 0.00 0.21 0.00 85 1007.5
20260903080204 56 99 1.7 6.1 0.00 0.21 0.00 85 1007.5
20260903073704 56 78 2.6 5.2 0.00 0.21 0.00 86 1007.5
20260903073204 56 101 2.6 6.1 0.00 0.21 0.00 85 1007.4
20260903070703 57 105 1.7 4.3 0.00 0.21 0.00 83 1007.2
20260903070205 57 115 1.7 7.0 0.00 0.21 0.00 82 1007.3
20260903063704 58 122 2.6 7.0 0.00 0.21 0.21 82 1007.2
20260903063204 57 130 4.3 8.7 0.00 0.21 0.21 82 1007.2
20260903060704 57 118 2.6 6.1 0.00 0.21 0.21 85 1007.3
20260903060204 57 106 1.7 5.2 0.00 0.21 0.21 86 1007.3
20260903053703 57 118 2.6 4.3 0.00 0.21 0.21 88 1007.3
20260903050703 57 118 1.7 2.6 0.00 0.21 0.21 89 1007.2
20260903050205 57 90 1.7 2.6 0.00 0.21 0.21 88 1007.3
20260903043704 58 90 1.7 5.2 0.00 0.21 0.21 89 1007.2
20260903043204 58 98 2.6 6.1 0.00 0.21 0.21 89 1007.2
20260903033206 59 110 1.7 7.0 0.00 0.21 0.21 89 1006.5
20260903030203 59 90 1.7 4.3 0.00 0.21 0.21 89 1006.2
20260903023704 60 104 1.7 2.6 0.00 0.21 0.21 85 1005.8
20260903023204 61 112 1.7 7.8 0.00 0.21 0.21 84 1005.8
20260903020703 61 147 2.6 10.4 0.01 0.21 0.21 82 1005.6
20260903013704 61 183 2.6 7.0 0.02 0.21 0.21 87 1005.5
20260903013204 61 176 3.5 13.0 0.03 0.21 0.21 87 1005.5
20260903010704 60 173 4.3 13.0 0.03 0.20 0.20 86 1004.8
20260903010204 60 157 5.2 12.2 0.03 0.20 0.20 86 1004.8
20260903003204 61 222 2.6 10.4 0.01 0.18 0.18 91 1004.8
20260903000703 61 135 0.9 2.6 0.01 0.17 0.17 90 1004.0
20260903000204 61 127 0.9 5.2 0.01 0.17 0.17 90 1004.0
20260902233704 61 132 1.7 6.1 0.04 0.17 0.17 90 1004.0
20260902233204 61 71 2.6 8.7 0.05 0.17 0.17 90 1003.9
20260902230204 61 98 1.7 4.3 0.07 0.16 0.16 90 1004.5
20260902223704 62 310 0.0 1.7 0.07 0.13 0.13 89 1004.2
20260902223204 62 177 0.9 2.6 0.06 0.12 0.12 88 1004.3
20260902220204 62 254 0.0 2.6 0.05 0.09 0.09 88 1004.5
20260902213704 62 271 0.9 1.7 0.03 0.06 0.06 85 1004.5
20260902213203 63 271 0.9 6.1 0.03 0.06 0.06 85 1004.5